Location: Home
(42.5358°N, 72.7383°W)
Time: 09:47:17
(UTC-04:00)

A-11 Canister half - Pass Details

Date: 28 June 2022
Orbit: 1514 x 1685 km, 47.2° (Epoch: 15 August)

Event Time Altitude Azimuth Distance (km) Brightness Sun altitude
Rises 00:32:52 0° 245° (WSW) 4,933 11.5 -24.0°
Reaches altitude 10° 00:36:02 10° 246° (WSW) 3,943 10.9 -24.1°
Maximum altitude 00:46:15 88° 337° (NNW) 1,668 9.1 -24.2°
Drops below altitude 10° 00:56:13 10° 68° (ENE) 3,858 11.3 -24.2°
Sets 00:59:18 0° 68° (ENE) 4,823 11.9 -24.2°
